Home   Weather   Ponce   Past weeks

Flag for Puerto Rico Past Weather in Ponce, Puerto Rico — Yesterday and Last 2 Weeks

Now
72 °F

Light rain. Overcast.


Feels Like: 67 °F
Forecast: 72 / 83 °F
Wind: 10 mph from East

Location: Aquadilla / Borinquen

Current Time: Apr 30, 2017 at 10:39:32 pm

Latest Report: Apr 30, 2017 at 9:50 pm


Visibility: 7 mi

Pressure: 30.09 "Hg

Humidity: 94%

Dew Point: 70 °F

Location of PonceLocation

Past Weather in Ponce — Graph

°F

Ponce Temperature Yesterday

Maximum temperature yesterday: 82 °F (at 12:50 pm)
Minimum temperature yesterday: 73 °F (at 6:50 am)
Average temperature yesterday: 77 °F

High & Low Weather Summary for the Past Weeks

 TemperatureHumidityPressure
High84 °F (Apr 16, 12:50 pm)100% (Apr 17, 5:50 pm)30.10 "Hg (Apr 17, 5:50 pm)
Low70 °F (Apr 20, 6:50 am)51% (Apr 23, 9:50 am)29.87 "Hg (Apr 24, 5:50 pm)
Average78 °F77%30.00 "Hg
* Reported Apr 15 11:50 pm — Apr 30 8:50 pm, Ponce, Weather by CustomWeather, © 2017

Note: Actual official high and low records may vary slightly from our data, if they occured in-between our weather recording intervals... More about our weather records

Advertising

Ponce Weather History for the Previous 24 Hours

Scroll right to see more
 ConditionsComfort  
Time TempWeatherWind HumidityBarometerVisibility
8:50 pm
Sun, Apr 30
73 °FPassing clouds.8 mph89%30.08 "Hg10 mi
6:50 pm72 °FDrizzle. Cloudy.9 mph100%30.05 "Hg10 mi
5:50 pm77 °FMore clouds than sun.17 mph83%30.03 "Hg10 mi
4:50 pm77 °FMore clouds than sun.16 mph79%30.02 "Hg10 mi
3:50 pm79 °FMore clouds than sun.16 mph74%30.04 "Hg10 mi
2:50 pm79 °FOvercast.14 mph70%30.04 "Hg10 mi
1:50 pm79 °FPartly sunny.16 mph74%30.05 "Hg10 mi
12:50 pm79 °FMore clouds than sun.14 mph79%30.07 "Hg10 mi
11:50 am75 °FMore clouds than sun.16 mph78%30.08 "Hg10 mi
10:50 am79 °FPartly sunny.20 mph70%30.08 "Hg10 mi
9:50 am73 °FBroken clouds.13 mph94%30.09 "Hg10 mi
8:50 am73 °FBroken clouds.17 mph89%30.09 "Hg10 mi
7:50 am75 °FThundershowers. Broken clouds.14 mph89%30.08 "Hg7 mi
6:50 am75 °FThundershowers. Partly cloudy.10 mph83%30.07 "Hg10 mi
11:50 pm
Sat, Apr 29
75 °FPassing clouds.8 mph83%30.10 "Hg10 mi
10:50 pm75 °FClear.9 mph83%30.09 "Hg10 mi
Weather by CustomWeather, © 2017

See weather overviewHow to use our weather pages